This demonstration page uses our WeatherBlox Daily Observations layout. Learn more.

Left ArrowRight Arrow

Hourly Observations for August 14, 2017

Temp ( °F °C ) Dew Point ( °F °C ) Humidity (%) Winds ( mph kmh ) Pressure ( in mb ) Visibility ( mi km ) Precip ( " mm )
12:51 am 00:51 Cloudy 80 26.7 58 14.4 47 47 NNW 8 13 29.79 1009 10 16.0934 N/A
1:51 am 01:51 Clear 78 25.6 59 15 52 52 NW 8 13 29.76 1008 10 16.0934 N/A
2:51 am 02:51 Clear 75 23.9 59 15 58 58 WNW 9 15 29.77 1008 10 16.0934 N/A
3:51 am 03:51 Clear 74 23.3 59 15 60 60 NW 8 13 29.77 1008 10 16.0934 N/A
4:51 am 04:51 Clear 73 22.8 60 15.6 64 64 NW 7 11 29.77 1008 10 16.0934 N/A
5:51 am 05:51 Sunny 73 22.8 60 15.6 64 64 NW 7 11 29.79 1009 10 16.0934 N/A
6:51 am 06:51 Sunny 74 23.3 62 16.7 67 67 SE 3 6 29.82 1010 10 16.0934 N/A
7:51 am 07:51 Sunny 78 25.6 61 16.1 56 56 WNW 3 6 29.83 1010 10 16.0934 N/A
8:51 am 08:51 Sunny 84 28.9 63 17.2 49 49 WNW 16 26 29.81 1010 10 16.0934 N/A
9:51 am 09:51 Sunny 86 30 62 16.7 45 45 NNW 9 15 29.8 1009 10 16.0934 N/A
10:51 am 10:51 Sunny 89 31.7 62 16.7 41 41 WNW 10 17 29.79 1009 10 16.0934 N/A
11:51 am 11:51 Sunny 90 32.2 61 16.1 38 38 NW 10 17 29.76 1008 10 16.0934 N/A
12:51 pm 12:51 Sunny 94 34.4 59 15 31 31 W 17 28 29.72 1007 10 16.0934 N/A
1:51 pm 13:51 Sunny 95 35 57 13.9 28 28 WNW 17 28 29.7 1006 10 16.0934 N/A
2:51 pm 14:51 Sunny 95 35 58 14.4 29 29 WNW 14 22 29.67 1005 10 16.0934 N/A
3:51 pm 15:51 Mostly Sunny 94 34.4 58 14.4 30 30 W 16 26 29.66 1004 10 16.0934 N/A
4:51 pm 16:51 Mostly Sunny 93 33.9 57 13.9 30 30 WNW 20 31 29.66 1004 10 16.0934 N/A
5:51 pm 17:51 Sunny 91 32.8 56 13.3 31 31 W 18 30 29.66 1004 10 16.0934 N/A
6:51 pm 18:51 Sunny 88 31.1 57 13.9 35 35 W 18 30 29.68 1005 10 16.0934 N/A
7:51 pm 19:51 Clear 85 29.4 57 13.9 39 39 WNW 14 22 29.69 1006 10 16.0934 N/A
8:51 pm 20:51 Clear 82 27.8 57 13.9 42 42 NW 10 17 29.71 1006 10 16.0934 N/A
9:51 pm 21:51 Clear 78 25.6 55 12.8 45 45 NNW 8 13 29.73 1007 10 16.0934 N/A
10:51 pm 22:51 Clear 74 23.3 58 14.4 57 57 NNW 3 6 29.73 1007 10 16.0934 N/A
11:51 pm 23:51 Clear 77 25 55 12.8 47 47 N N/A 29.72 1007 10 16.0934 N/A

Powered by AerisWeather